TimeIST,TemperatureF,Dew PointF,Humidity,Sea Level PressureIn,VisibilityMPH,Wind Direction,Wind SpeedMPH,Gust SpeedMPH,PrecipitationIn,Events,Conditions,WindDirDegrees,DateUTC
12:00 AM,51.8,46.4,82,30.04,6.2,SSW,11.5,-,N/A,Rain,Light Rain,200,2011-10-16 23:00:00
12:30 AM,51.8,46.4,82,30.01,6.2,SSW,13.8,-,N/A,,Mostly Cloudy,200,2011-10-16 23:30:00
1:00 AM,52,47,79,30.02,12,SSW,15.7,,,Rain,Light Rain,200,2011-10-17 00:00:00
1:00 AM,51.8,48.2,88,30.01,6.2,SSW,15.0,-,N/A,,Mostly Cloudy,200,2011-10-17 00:00:00
1:30 AM,51.8,48.2,88,30.01,6.2,SSW,16.1,-,N/A,,Mostly Cloudy,200,2011-10-17 00:30:00
2:00 AM,51.8,46.4,82,29.98,6.2,SSW,15.0,-,N/A,,Scattered Clouds,200,2011-10-17 01:00:00
2:30 AM,51.8,48.2,88,29.98,6.2,SSW,13.8,-,N/A,,Mostly Cloudy,200,2011-10-17 01:30:00
3:00 AM,51.8,48.2,88,29.98,6.2,SSW,15.0,-,N/A,,Mostly Cloudy,210,2011-10-17 02:00:00
3:30 AM,51.8,48.2,88,29.95,6.2,SSW,13.8,-,N/A,,Mostly Cloudy,200,2011-10-17 02:30:00
4:00 AM,51.8,46.4,82,29.95,6.2,SSW,13.8,-,N/A,,Mostly Cloudy,210,2011-10-17 03:00:00
4:30 AM,51.8,46.4,82,29.95,6.2,SSW,13.8,-,N/A,,Mostly Cloudy,210,2011-10-17 03:30:00
5:00 AM,51.8,48.2,88,29.92,6.2,SSW,11.5,-,N/A,,Mostly Cloudy,200,2011-10-17 04:00:00
5:30 AM,51.8,48.2,88,29.92,6.2,SSW,13.8,-,N/A,,Mostly Cloudy,200,2011-10-17 04:30:00
6:00 AM,53.6,48.2,82,29.89,6.2,SSW,17.3,-,N/A,,Mostly Cloudy,200,2011-10-17 05:00:00
6:30 AM,53.6,48.2,82,29.89,6.2,South,18.4,-,N/A,,Mostly Cloudy,190,2011-10-17 05:30:00
7:00 AM,53,47,75,29.89,12,SSW,15.7,,,,Overcast,200,2011-10-17 06:00:00
7:00 AM,53.6,48.2,82,29.89,6.2,SSW,16.1,-,N/A,,Mostly Cloudy,200,2011-10-17 06:00:00
7:30 AM,51.8,50.0,94,29.89,2.5,SSW,16.1,-,N/A,Rain,Light Rain,210,2011-10-17 06:30:00
8:00 AM,51.8,48.2,88,29.86,6.2,SSW,16.1,-,N/A,,Mostly Cloudy,200,2011-10-17 07:00:00
8:30 AM,51.8,50.0,94,29.86,6.2,SSW,18.4,-,N/A,,Mostly Cloudy,200,2011-10-17 07:30:00
9:00 AM,53.6,48.2,82,29.83,6.2,South,18.4,-,N/A,,Mostly Cloudy,190,2011-10-17 08:00:00
9:30 AM,53.6,48.2,82,29.83,6.2,South,17.3,-,N/A,,Mostly Cloudy,190,2011-10-17 08:30:00
10:00 AM,53.6,50.0,88,29.80,6.2,South,20.7,-,N/A,,Mostly Cloudy,190,2011-10-17 09:00:00
10:30 AM,55.4,48.2,77,29.77,6.2,South,20.7,-,N/A,,Mostly Cloudy,190,2011-10-17 09:30:00
11:00 AM,57.2,48.2,72,29.74,6.2,SSW,24.2,-,N/A,,Mostly Cloudy,210,2011-10-17 10:00:00
11:30 AM,57.2,48.2,72,29.71,6.2,SSW,28.8,40.3,N/A,Rain,Light Rain,210,2011-10-17 10:30:00
12:00 PM,57.2,50.0,77,29.71,6.2,SSW,29.9,44.9,N/A,,Mostly Cloudy,210,2011-10-17 11:00:00
12:30 PM,55.4,50.0,82,29.68,4.3,SW,29.9,42.6,N/A,Rain,Light Rain,220,2011-10-17 11:30:00
1:00 PM,55,52,84,29.67,4,SW,31.3,,,Rain,Light Rain,220,2011-10-17 12:00:00
1:00 PM,55.4,51.8,88,29.65,4.3,SW,32.2,46.0,N/A,Rain,Light Rain,220,2011-10-17 12:00:00
1:30 PM,55.4,51.8,88,29.65,3.7,SW,33.4,-,N/A,,Light Drizzle,220,2011-10-17 12:30:00
2:00 PM,55.4,53.6,94,29.62,6.2,SW,31.1,-,N/A,,Light Drizzle,220,2011-10-17 13:00:00
2:30 PM,55.4,53.6,94,29.62,0.9,SW,29.9,41.4,N/A,Rain,Rain,220,2011-10-17 13:30:00
3:00 PM,48.2,46.4,93,29.68,4.3,NW,16.1,-,N/A,Rain,Light Rain,310,2011-10-17 14:00:00
3:30 PM,48.2,46.4,93,29.71,4.3,NW,10.4,-,N/A,Rain,Light Rain,310,2011-10-17 14:30:00
4:00 PM,48.2,46.4,93,29.71,5.0,West,11.5,-,N/A,Rain,Light Rain,270,2011-10-17 15:00:00
4:30 PM,48.2,46.4,93,29.74,6.2,West,11.5,-,N/A,,Mostly Cloudy,260,2011-10-17 15:30:00
5:00 PM,48.2,46.4,93,29.74,5.6,West,13.8,-,N/A,Rain,Light Rain Showers,260,2011-10-17 16:00:00
5:30 PM,48.2,46.4,93,29.74,6.2,West,12.7,-,N/A,,Scattered Clouds,270,2011-10-17 16:30:00
6:00 PM,48.2,44.6,87,29.74,6.2,West,9.2,-,N/A,,Scattered Clouds,270,2011-10-17 17:00:00
6:30 PM,48.2,41.0,76,29.77,6.2,West,13.8,-,N/A,,Scattered Clouds,270,2011-10-17 17:30:00
7:00 PM,47,42,75,29.78,16,West,11.2,,,,Partly Cloudy,260,2011-10-17 18:00:00
7:00 PM,46.4,41.0,81,29.77,6.2,West,10.4,-,N/A,,Scattered Clouds,260,2011-10-17 18:00:00
7:30 PM,46.4,42.8,87,29.77,6.2,West,11.5,-,N/A,Rain,Light Rain Showers,270,2011-10-17 18:30:00
8:00 PM,46.4,39.2,76,29.80,6.2,West,8.1,-,N/A,,Partly Cloudy,260,2011-10-17 19:00:00
8:30 PM,46.4,41.0,81,29.80,6.2,West,11.5,-,N/A,Rain,Light Rain Showers,280,2011-10-17 19:30:00
9:00 PM,46.4,39.2,76,29.80,6.2,West,13.8,-,N/A,,Partly Cloudy,270,2011-10-17 20:00:00
9:30 PM,46.4,39.2,76,29.80,6.2,West,16.1,-,N/A,,Scattered Clouds,270,2011-10-17 20:30:00
10:00 PM,46.4,39.2,76,29.80,6.2,West,11.5,-,N/A,,Partly Cloudy,260,2011-10-17 21:00:00
10:30 PM,46.4,41.0,81,29.80,6.2,West,11.5,-,N/A,,Partly Cloudy,260,2011-10-17 21:30:00
11:00 PM,46.4,39.2,76,29.83,6.2,West,13.8,-,N/A,,Partly Cloudy,270,2011-10-17 22:00:00
11:30 PM,46.4,39.2,76,29.83,6.2,West,10.4,-,N/A,,Partly Cloudy,270,2011-10-17 22:30:00